Theta_e
343 341 342 341 341 340 341 345 351 352 353 353 353 352 352 350 350 349 346 343 340 340
343 342 342 342 342 342 343 346 349 352 353 353 353 353 353 350 350 351 349 349 347 342
343 343 344 343 342 341 342 346 348 349 352 354 354 354 353 352 352 351 350 347 347 347
344 344 344 343 343 343 342 343 347 349 350 351 352 353 353 353 353 352 352 351 348 348
345 345 344 344 344 345 343 343 345 348 349 351 353 353 352 352 353 352 351 352 352 351
344 344 344 345 346 346 346 345 344 346 347 349 352 353 353 353 352 353 353 353 352 352
344 345 346 347 347 345 346 346 347 346 348 349 351 353 354 354 353 352 352 354 354 353
345 346 346 347 350 350 347 346 346 347 347 349 350 352 353 354 353 353 352 353 353 354
346 346 346 346 345 347 350 350 349 347 347 348 349 339 338 349 353 353 352 351 352 354
345 346 347 348 348 346 345 349 349 349 349 348 350 334 334 339 353 353 353 353 353 353
346 346 348 349 349 349 348 346 347 349 350 348 348 332 331 335 351 353 354 354 354 354
347 347 347 348 350 351 351 350 349 349 349 350 350 328 328 332 349 352 353 355 356 355
349 349 349 349 350 352 353 353 353 352 353 343 350 330 324 330 349 349 350 354 355 336
351 350 352 352 353 352 353 354 354 354 356 356 349 349 323 321 348 350 350 351 352 355
Wind_Speed
13 9 8 8 6 7 6 5 6 7 6 7 6 5 4 3 4 4 4 5 5 2
12 11 10 9 8 6 5 6 6 8 9 8 7 7 6 5 6 4 5 6 5 4
15 14 11 8 9 7 7 6 7 8 8 8 8 8 8 6 4 6 5 5 5 5
14 14 12 10 10 10 8 9 8 8 8 9 9 9 9 8 7 8 7 5 6 8
15 14 14 12 12 11 11 9 10 9 9 10 9 8 10 10 8 10 9 9 8 10
15 14 15 14 12 12 11 11 10 10 11 11 10 9 10 10 10 10 11 11 11 12
17 17 16 15 14 13 13 13 12 12 12 11 10 10 9 10 10 11 11 12 12 12
17 15 14 14 15 14 13 13 13 12 12 11 10 9 11 11 11 11 11 11 13 13
16 15 16 14 14 13 13 13 12 13 13 12 11 14 17 15 12 12 13 13 13 13
15 16 15 14 12 13 14 12 14 13 13 14 14 16 19 20 14 12 13 13 12 11
15 15 14 13 14 13 12 14 13 13 14 14 13 16 19 19 17 14 15 15 15 14
16 16 15 16 15 13 13 12 14 13 14 15 15 17 19 15 14 15 17 15 15 15
16 16 16 16 16 13 13 13 11 12 13 16 15 14 18 17 11 14 12 14 16 17
14 15 14 12 12 12 12 11 11 12 12 14 14 14 18 19 14 12 11 12 11 11
Wind_Direction
196 195 198 189 190 196 192 188 169 192 193 204 195 199 198 195 208 182 200 202 208 202
195 194 196 188 189 194 179 180 180 190 204 207 196 197 197 202 208 195 209 220 205 209
197 196 193 185 191 188 184 179 177 191 203 208 206 204 196 207 203 204 220 226 209 214
196 195 190 190 194 194 189 188 187 190 202 211 210 206 199 206 206 211 220 217 221 237
192 191 192 193 194 188 195 190 194 191 201 215 213 201 201 209 205 213 218 222 225 241
194 190 194 197 194 191 187 195 197 197 207 213 210 205 205 206 205 212 219 223 221 235
193 194 195 194 193 189 190 199 199 199 208 207 205 207 205 207 213 217 222 222 223 229
195 193 194 194 197 194 194 202 203 197 207 207 203 207 210 210 215 219 225 225 226 227
190 189 194 194 194 195 197 203 201 206 207 204 212 212 207 210 218 221 224 228 229 233
188 192 194 195 191 197 201 197 208 209 208 212 216 209 209 209 223 223 226 229 231 230
185 190 188 188 196 201 198 203 204 211 211 214 219 208 211 209 220 230 232 231 232 232
185 187 186 192 198 200 200 204 208 209 209 213 223 207 207 201 221 228 235 234 234 234
186 187 192 195 197 199 204 211 210 213 212 214 224 207 205 200 220 231 236 238 240 228
187 192 196 193 194 194 201 209 210 215 215 216 214 221 203 200 214 225 230 235 238 237